Terug naar catalogus

ESSA 8

TOS-F

ActiefWeerSSO
NORAD 3615·PAYLOAD·🇺🇸 United States

Gelanceerd Dec 15, 1968 vanaf Vandenberg Space Force Base

Loading…

Volgende Passages (komende 24 uur)

TLE

VersSource: Space-Track

Epoch: Sep 14, 2026, 07:59 UTC

1 03615U 68114A   26257.33309647 -.00000036  00000-0  52234-4 0  9992
2 03615 101.7086 205.9072 0032023 148.6942 211.6046 12.56251006647756

Volg ESSA 8 in realtime met AllMySat

Download on the App Store